NK7E-1 Weather Reports


time (UTC)temp
C
wind
direction
speed
KPH
gust
KPH
rain 1hr
cm
rain 24hr
cm
rain mn
cm
humidity
%
barometer
mb
20260506082000 14 302 0.0 0.0 0.00 0.15 0.00 62 1015.3
20260506081000 15 302 1.6 1.6 0.00 0.15 0.00 62 1015.4
20260506073001 15 321 1.6 4.8 0.00 0.33 0.00 60 1015.5
20260506072001 15 330 1.6 8.0 0.00 0.33 0.00 59 1015.4
20260506071000 15 251 1.6 9.7 0.00 0.33 0.00 58 1015.2
20260506062000 16 296 0.0 1.6 0.00 0.53 0.33 57 1015.0
20260506061001 16 285 0.0 0.0 0.00 0.53 0.33 55 1015.1
20260506051001 17 316 4.8 11.3 0.00 0.66 0.33 49 1014.6
20260506045000 17 333 4.8 9.7 0.00 0.74 0.33 50 1014.4
20260506044000 18 327 8.0 17.7 0.00 0.74 0.33 48 1014.3
20260506043001 18 296 9.7 20.9 0.00 0.74 0.33 47 1014.1
20260506042001 18 284 6.4 17.7 0.00 0.74 0.33 47 1014.1
20260506041001 18 259 4.8 17.7 0.00 0.74 0.33 47 1014.0
20260506040003 18 274 6.4 16.1 0.00 0.74 0.33 46 1013.8
20260506035002 18 289 9.7 20.9 0.00 0.74 0.33 45 1013.6
20260506034002 18 275 11.3 24.1 0.00 0.74 0.33 45 1013.5
20260506033002 19 298 9.7 20.9 0.00 0.74 0.33 44 1013.3
20260506032002 19 271 8.0 22.5 0.00 0.74 0.33 42 1013.1
20260506031002 19 302 8.0 17.7 0.00 0.74 0.33 37 1013.0
20260506030001 20 302 8.0 14.5 0.00 0.79 0.33 35 1012.8
20260506025000 20 298 8.0 17.7 0.00 0.79 0.33 35 1012.6
20260506024002 20 290 9.7 22.5 0.00 0.79 0.33 33 1012.5
20260506023000 20 322 9.7 24.1 0.00 0.79 0.33 32 1012.3
20260506022001 20 289 11.3 24.1 0.00 0.79 0.33 32 1012.1
20260506021000 20 301 11.3 25.7 0.00 0.79 0.33 32 1011.9
20260506020001 20 310 11.3 19.3 0.00 0.81 0.33 30 1011.7
20260506015000 20 307 12.9 29.0 0.00 0.81 0.33 31 1011.6
20260506014002 21 315 14.5 33.8 0.00 0.81 0.33 32 1011.6
20260506013000 21 289 14.5 37.0 0.00 0.81 0.33 32 1011.5
20260506012000 21 304 14.5 27.4 0.00 0.81 0.33 32 1011.4
20260506011000 21 309 12.9 29.0 0.00 0.81 0.33 32 1011.5
20260506010004 21 248 9.7 22.5 0.00 0.81 0.33 32 1011.3
20260506005000 22 281 9.7 30.6 0.00 0.84 0.33 31 1011.3
20260506004002 22 298 11.3 30.6 0.00 0.84 0.33 29 1011.1
20260506003001 22 285 11.3 30.6 0.00 0.84 0.33 27 1011.1
20260506002000 22 274 8.0 22.5 0.00 0.84 0.33 27 1011.0
20260506001000 23 302 11.3 30.6 0.00 0.84 0.33 27 1011.1
20260506000003 23 304 11.3 24.1 0.00 0.84 0.33 27 1010.9
20260505235000 22 293 9.7 27.4 0.00 0.84 0.33 28 1010.9
20260505234000 22 293 14.5 30.6 0.00 0.84 0.33 28 1010.7
20260505233002 23 294 12.9 38.6 0.00 0.84 0.33 28 1010.7
20260505232000 23 299 9.7 19.3 0.00 0.84 0.33 28 1010.6
20260505231000 23 302 8.0 20.9 0.00 0.84 0.33 28 1010.7
20260505230004 23 266 6.4 25.7 0.00 0.84 0.33 28 1010.7
20260505225000 23 264 8.0 32.2 0.00 0.84 0.33 29 1010.9
20260505224000 23 271 3.2 12.9 0.00 0.84 0.33 29 1010.8
20260505223000 23 295 9.7 29.0 0.00 0.84 0.33 29 1011.0
20260505222001 23 223 9.7 25.7 0.00 0.84 0.33 28 1011.1
20260505221000 23 227 8.0 20.9 0.00 0.84 0.33 27 1011.2
20260505220003 23 250 11.3 29.0 0.00 0.84 0.33 28 1011.2
20260505215000 24 229 9.7 27.4 0.00 0.84 0.33 27 1011.4
20260505214000 23 289 11.3 30.6 0.00 0.84 0.33 29 1011.7
20260505213001 23 247 9.7 25.7 0.00 0.84 0.33 28 1011.7
20260505212000 23 174 9.7 22.5 0.00 0.84 0.33 31 1011.8
20260505211001 23 214 9.7 25.7 0.00 0.84 0.33 31 1011.8
20260505210003 23 297 14.5 43.5 0.00 0.84 0.33 30 1011.9
20260505205000 23 298 14.5 45.1 0.00 0.84 0.33 30 1011.8
20260505204001 23 277 12.9 33.8 0.00 0.84 0.33 31 1011.9
20260505203001 23 246 16.1 32.2 0.00 0.84 0.33 32 1011.9
20260505202000 23 219 12.9 25.7 0.00 0.84 0.33 31 1011.9
20260505201001 23 252 14.5 32.2 0.00 0.84 0.33 32 1012.1
20260505200003 23 290 12.9 40.2 0.00 0.84 0.33 34 1012.0
20260505195000 22 262 14.5 43.5 0.00 0.84 0.33 36 1012.1
20260505194001 23 219 11.3 27.4 0.00 0.84 0.33 37 1012.2
20260505193001 22 298 9.7 27.4 0.00 0.84 0.33 39 1012.3
20260505192002 23 284 11.3 29.0 0.00 0.84 0.33 41 1012.2
20260505191000 23 309 8.0 22.5 0.00 0.84 0.33 43 1012.5
20260505190001 22 255 9.7 22.5 0.00 0.84 0.33 42 1012.6
20260505185000 22 309 9.7 24.1 0.00 0.84 0.33 45 1012.6
20260505184001 21 290 6.4 17.7 0.00 0.84 0.33 50 1012.9
20260505183000 21 278 4.8 16.1 0.00 0.84 0.33 52 1013.1
20260505182000 21 117 3.2 9.7 0.00 0.84 0.33 52 1013.1
20260505181000 20 160 3.2 11.3 0.00 0.84 0.33 55 1013.3
20260505180002 19 107 3.2 6.4 0.00 0.84 0.33 57 1013.4
20260505175001 19 160 1.6 6.4 0.00 0.84 0.33 56 1013.6
20260505174000 19 169 1.6 4.8 0.00 0.84 0.33 58 1013.6
20260505173001 18 340 4.8 8.0 0.00 0.84 0.33 58 1013.7
20260505172001 19 309 4.8 9.7 0.00 0.84 0.33 58 1013.7
20260505171001 19 283 1.6 3.2 0.00 0.84 0.33 57 1013.7
20260505170002 18 295 1.6 4.8 0.00 0.84 0.33 59 1013.7
20260505165000 18 273 1.6 8.0 0.00 0.84 0.33 61 1013.6
20260505164001 18 301 1.6 8.0 0.00 0.84 0.33 61 1013.6
20260505163001 17 326 1.6 4.8 0.00 0.84 0.33 63 1013.6
20260505162000 17 333 3.2 6.4 0.00 0.84 0.33 66 1013.6
20260505161000 17 292 0.0 4.8 0.00 0.84 0.33 70 1013.7
20260505153001 16 301 1.6 4.8 0.00 0.84 0.33 75 1013.5
20260505152000 16 307 3.2 8.0 0.00 0.84 0.33 76 1013.5
20260505151001 16 294 3.2 11.3 0.00 0.84 0.33 82 1013.5
20260505124959 15 121 0.0 1.6 0.00 0.84 0.33 90 1012.5
20260505123959 15 120 1.6 3.2 0.00 0.84 0.33 90 1012.3
20260505122959 14 175 0.0 1.6 0.00 0.84 0.33 90 1012.5
20260505121959 14 201 0.0 1.6 0.00 0.84 0.33 90 1012.2
20260505120959 15 160 1.6 4.8 0.00 0.84 0.33 90 1012.4
20260505115959 15 158 1.6 4.8 0.03 0.84 0.33 90 1011.8
20260505114959 15 170 1.6 4.8 0.03 0.84 0.33 89 1012.2
20260505113958 15 144 3.2 4.8 0.03 0.84 0.33 90 1012.0
20260505112958 15 131 1.6 4.8 0.03 0.84 0.33 90 1012.1
20260505111958 15 172 3.2 6.4 0.03 0.84 0.33 91 1012.5
20260505110959 15 157 1.6 4.8 0.03 0.84 0.33 91 1012.6
20260505101959 14 75 3.2 6.4 0.05 0.81 0.30 90 1012.5
20260505100959 14 124 0.0 3.2 0.05 0.81 0.30 90 1013.3
20260505100001 14 124 3.2 8.0 0.08 0.81 0.30 90 1013.6
20260505094959 14 158 3.2 8.0 0.08 0.81 0.30 90 1013.6
20260505094000 14 131 4.8 9.7 0.10 0.81 0.30 90 1013.5
20260505092959 14 150 6.4 12.9 0.10 0.81 0.30 90 1013.7
20260505091959 14 143 8.0 16.1 0.05 0.76 0.25 91 1013.9
20260505090959 14 140 8.0 16.1 0.08 0.76 0.25 91 1014.0
20260505085959 15 120 8.0 16.1 0.05 0.74 0.23 91 1014.0
20260505085000 15 125 6.4 12.9 0.08 0.74 0.23 91 1014.2
20260505084001 15 111 6.4 11.3 0.08 0.71 0.20 91 1014.4
20260505082958 15 98 4.8 12.9 0.10 0.71 0.20 91 1014.7